| time (UTC) | temp F | wind direction | speed MPH | gust MPH | rain 1hr in | rain 24hr in | rain mn in | humidity % | barometer mb |
| 20260509093449 | 0 | 143 | 1.0 | 2.0 | 0.00 | 0.01 | 0.01 | 1056.9 | |
| 20260509092946 | 0 | 145 | 1.0 | 2.0 | 0.00 | 0.01 | 0.01 | 1057.0 | |
| 20260509092444 | 0 | 176 | 1.0 | 2.0 | 0.00 | 0.01 | 0.01 | 1056.8 | |
| 20260509091942 | 0 | 140 | 0.0 | 2.0 | 0.00 | 0.01 | 0.01 | 1056.7 | |
| 20260509091438 | 0 | 151 | 1.0 | 2.0 | 0.00 | 0.01 | 0.01 | 1056.8 | |
| 20260509090936 | 0 | 170 | 1.0 | 1.0 | 0.00 | 0.01 | 0.01 | 1056.8 | |
| 20260509090433 | 0 | 146 | 0.0 | 1.0 | 0.00 | 0.01 | 0.01 | 1056.8 | |
| 20260509085931 | 0 | 140 | 1.0 | 1.0 | 0.00 | 0.01 | 0.01 | 1056.7 | |
| 20260509085427 | 0 | 137 | 0.0 | 1.0 | 0.00 | 0.01 | 0.01 | 1056.5 | |
| 20260509084923 | 0 | 133 | 0.0 | 0.0 | 0.00 | 0.01 | 0.01 | 1056.5 | |
| 20260509084420 | 0 | 134 | 0.0 | 0.0 | 0.00 | 0.01 | 0.01 | 1056.3 | |
| 20260509083918 | 0 | 140 | 0.0 | 0.0 | 0.00 | 0.01 | 0.01 | 1056.5 | |
| 20260509083415 | 0 | 136 | 0.0 | 0.0 | 0.00 | 0.01 | 0.01 | 1056.5 | |
| 20260509082912 | 0 | 136 | 0.0 | 0.0 | 0.00 | 0.01 | 0.01 | 1056.5 | |
| 20260509082409 | 0 | 136 | 0.0 | 0.0 | 0.00 | 0.01 | 0.01 | 1056.8 | |
| 20260509081906 | 0 | 134 | 0.0 | 0.0 | 0.00 | 0.01 | 0.01 | 1056.6 | |
| 20260509081403 | 0 | 142 | 0.0 | 1.0 | 0.00 | 0.01 | 0.01 | 1056.7 | |
| 20260509080900 | 0 | 136 | 0.0 | 0.0 | 0.00 | 0.01 | 0.01 | 1056.3 | |
| 20260509080358 | 0 | 133 | 0.0 | 0.0 | 0.00 | 0.01 | 0.01 | 1056.5 | |
| 20260509075857 | 0 | 141 | 0.0 | 1.0 | 0.00 | 0.01 | 0.01 | 1056.5 | |
| 20260509075353 | 0 | 133 | 0.0 | 1.0 | 0.00 | 0.01 | 0.01 | 1056.4 | |
| 20260509074850 | 0 | 133 | 0.0 | 0.0 | 0.00 | 0.01 | 0.01 | 1056.8 | |
| 20260509074348 | 0 | 135 | 0.0 | 0.0 | 0.00 | 0.01 | 0.01 | 1056.5 | |
| 20260509073844 | 0 | 144 | 0.0 | 0.0 | 0.00 | 0.01 | 0.01 | 1056.7 | |
| 20260509073341 | 0 | 145 | 1.0 | 1.0 | 0.00 | 0.01 | 0.01 | 1056.5 | |
| 20260509072837 | 0 | 144 | 0.0 | 1.0 | 0.00 | 0.01 | 0.01 | 1056.5 | |
| 20260509072334 | 0 | 165 | 1.0 | 1.0 | 0.00 | 0.01 | 0.01 | 1056.6 | |
| 20260509071830 | 0 | 146 | 1.0 | 1.0 | 0.00 | 0.01 | 0.01 | 1056.5 | |
| 20260509071328 | 0 | 147 | 0.0 | 1.0 | 0.00 | 0.01 | 0.01 | 1056.3 | |
| 20260509070825 | 0 | 145 | 1.0 | 1.0 | 0.00 | 0.01 | 0.01 | 1056.3 | |
| 20260509070321 | 0 | 145 | 0.0 | 1.0 | 0.00 | 0.01 | 0.01 | 1056.4 | |
| 20260509065818 | 0 | 136 | 0.0 | 0.0 | 0.00 | 0.01 | 0.01 | 1056.2 | |
| 20260509065314 | 0 | 132 | 0.0 | 0.0 | 0.00 | 0.01 | 0.01 | 1056.0 | |
| 20260509064810 | 0 | 135 | 0.0 | 0.0 | 0.05 | 0.01 | 0.01 | 1056.2 | |
| 20260509064308 | 0 | 137 | 0.0 | 0.0 | 0.05 | 0.01 | 0.01 | 1056.1 | |
| 20260509063805 | 0 | 134 | 0.0 | 1.0 | 0.00 | 0.00 | 0.00 | 1056.1 | |
| 20260509063301 | 0 | 129 | 0.0 | 0.0 | 0.00 | 0.00 | 0.00 | 1056.3 | |
| 20260509062758 | 0 | 145 | 0.0 | 1.0 | 0.00 | 0.00 | 0.00 | 1056.6 | |
| 20260509062255 | 0 | 148 | 0.0 | 1.0 | 0.00 | 0.00 | 0.00 | 1056.6 | |
| 20260509061752 | 0 | 133 | 0.0 | 1.0 | 0.00 | 0.00 | 0.00 | 1056.7 | |
| 20260509061250 | 0 | 131 | 0.0 | 0.0 | 0.00 | 0.00 | 0.00 | 1056.6 | |
| 20260509060747 | 0 | 132 | 0.0 | 1.0 | 0.00 | 0.00 | 0.00 | 1056.8 | |
| 20260509060244 | 0 | 143 | 0.0 | 1.0 | 0.00 | 0.00 | 0.00 | 1056.8 | |
| 20260509055739 | 0 | 145 | 0.0 | 1.0 | 0.00 | 0.00 | 0.00 | 1056.7 | |
| 20260509055235 | 0 | 137 | 0.0 | 0.0 | 0.00 | 0.00 | 0.00 | 1056.6 | |
| 20260509054732 | 0 | 132 | 0.0 | 1.0 | 0.00 | 0.00 | 0.00 | 1056.8 | |
| 20260509054229 | 0 | 132 | 0.0 | 0.0 | 0.00 | 0.00 | 0.00 | 1056.8 | |
| 20260509053728 | 0 | 132 | 0.0 | 0.0 | 0.00 | 0.00 | 0.00 | 1056.6 | |
| 20260509053224 | 0 | 147 | 0.0 | 1.0 | 0.00 | 0.00 | 0.00 | 1056.8 | |
| 20260509052722 | 0 | 135 | 0.0 | 1.0 | 0.00 | 0.00 | 0.00 | 1056.7 | |
| 20260509052219 | 0 | 134 | 1.0 | 1.0 | 0.00 | 0.00 | 0.00 | 1056.9 | |
| 20260509051717 | 0 | 137 | 0.0 | 0.0 | 0.00 | 0.00 | 0.00 | 1056.4 | |
| 20260509051215 | 0 | 132 | 0.0 | 0.0 | 0.00 | 0.00 | 0.00 | 1056.7 | |
| 20260509050712 | 0 | 131 | 0.0 | 0.0 | 0.00 | 0.00 | 0.00 | 1056.7 | |
| 20260509050208 | 0 | 136 | 0.0 | 0.0 | 0.00 | 0.00 | 0.00 | 1056.4 | |
| 20260509045705 | 0 | 140 | 1.0 | 1.0 | 0.00 | 0.24 | 0.24 | 1056.8 | |
| 20260509045202 | 0 | 130 | 0.0 | 0.0 | 0.00 | 0.24 | 0.24 | 1056.6 | |
| 20260509044700 | 0 | 127 | 0.0 | 0.0 | 0.00 | 0.24 | 0.24 | 1056.6 | |
| 20260509044157 | 0 | 135 | 0.0 | 0.0 | 0.00 | 0.24 | 0.24 | 1056.5 | |
| 20260509043653 | 0 | 133 | 0.0 | 0.0 | 0.00 | 0.24 | 0.24 | 1056.4 | |
| 20260509043149 | 0 | 130 | 0.0 | 0.0 | 0.00 | 0.24 | 0.24 | 1056.6 | |
| 20260509042646 | 0 | 130 | 0.0 | 0.0 | 0.00 | 0.24 | 0.24 | 1056.4 | |
| 20260509042141 | 0 | 131 | 0.0 | 0.0 | 0.00 | 0.24 | 0.24 | 1056.5 | |
| 20260509041638 | 0 | 129 | 0.0 | 0.0 | 0.00 | 0.24 | 0.24 | 1056.4 | |
| 20260509041136 | 0 | 129 | 0.0 | 0.0 | 0.00 | 0.24 | 0.24 | 1056.5 | |
| 20260509040634 | 0 | 138 | 1.0 | 1.0 | 0.00 | 0.24 | 0.24 | 1056.5 | |
| 20260509040131 | 0 | 144 | 1.0 | 1.0 | 0.00 | 0.24 | 0.24 | 1056.8 | |
| 20260509035628 | 0 | 125 | 0.0 | 1.0 | 0.00 | 0.24 | 0.24 | 1056.6 | |
| 20260509035124 | 0 | 127 | 0.0 | 0.0 | 0.00 | 0.24 | 0.24 | 1056.8 | |
| 20260509034622 | 0 | 128 | 0.0 | 1.0 | 0.00 | 0.24 | 0.24 | 1057.0 | |
| 20260509034119 | 0 | 125 | 0.0 | 0.0 | 0.00 | 0.24 | 0.24 | 1057.0 | |
| 20260509033616 | 0 | 127 | 0.0 | 0.0 | 0.00 | 0.24 | 0.24 | 1057.0 | |
| 20260509033113 | 0 | 121 | 0.0 | 1.0 | 0.00 | 0.24 | 0.24 | 1057.4 | |
| 20260509032610 | 0 | 127 | 0.0 | 1.0 | 0.00 | 0.24 | 0.24 | 1057.0 | |
| 20260509032107 | 0 | 137 | 0.0 | 1.0 | 0.00 | 0.24 | 0.24 | 1057.2 | |
| 20260509031605 | 0 | 137 | 0.0 | 1.0 | 0.00 | 0.24 | 0.24 | 1057.2 | |
| 20260509031102 | 0 | 123 | 0.0 | 1.0 | 0.00 | 0.24 | 0.24 | 1056.6 | |
| 20260509030600 | 0 | 84 | 1.0 | 2.0 | 0.00 | 0.24 | 0.24 | 1056.7 | |
| 20260509030056 | 0 | 64 | 1.0 | 2.0 | 0.00 | 0.24 | 0.24 | 1056.7 | |
| 20260509025553 | 0 | 119 | 1.0 | 2.0 | 0.07 | 0.24 | 0.24 | 1056.7 | |
| 20260509025048 | 0 | 76 | 3.0 | 5.0 | 0.31 | 0.24 | 0.24 | 1056.7 | |
| 20260509024544 | 0 | 35 | 5.0 | 6.0 | 0.42 | 0.23 | 0.23 | 1056.9 | |
| 20260509024041 | 0 | 90 | 4.0 | 6.0 | 0.35 | 0.19 | 0.19 | 1057.2 | |
| 20260509023539 | 0 | 17 | 7.0 | 9.0 | 0.35 | 0.16 | 0.16 | 1057.1 | |
| 20260509023035 | 0 | 309 | 4.0 | 10.0 | 0.31 | 0.13 | 0.13 | 1057.5 | |
| 20260509022532 | 0 | 331 | 6.0 | 7.0 | 0.19 | 0.10 | 0.10 | 1057.2 | |
| 20260509022030 | 0 | 74 | 7.0 | 13.0 | 0.31 | 0.08 | 0.08 | 1056.8 | |
| 20260509021526 | 0 | 332 | 5.0 | 7.0 | 0.31 | 0.06 | 0.06 | 1056.5 | |
| 20260509021023 | 0 | 352 | 5.0 | 8.0 | 0.12 | 0.02 | 0.02 | 1056.7 | |
| 20260509020522 | 0 | 324 | 3.0 | 5.0 | 0.05 | 0.01 | 0.01 | 1055.9 | |
| 20260509020018 | 0 | 0 | 4.0 | 6.0 | 0.00 | 0.00 | 0.00 | 1055.5 | |
| 20260509015517 | 0 | 57 | 3.0 | 7.0 | 0.00 | 0.00 | 0.00 | 1055.2 | |
| 20260509015014 | 0 | 39 | 4.0 | 9.0 | 0.00 | 0.00 | 0.00 | 1055.0 | |
| 20260509014511 | 0 | 337 | 5.0 | 6.0 | 0.00 | 0.00 | 0.00 | 1055.2 | |
| 20260509014007 | 0 | 63 | 5.0 | 6.0 | 0.00 | 0.00 | 0.00 | 1055.3 | |
| 20260509013504 | 0 | 343 | 5.0 | 11.0 | 0.00 | 0.00 | 0.00 | 1055.0 | |
| 20260509012959 | 0 | 327 | 4.0 | 14.0 | 0.00 | 0.00 | 0.00 | 1055.3 | |
| 20260509012456 | 0 | 150 | 1.0 | 1.0 | 0.00 | 0.00 | 0.00 | 1054.3 | |
| 20260509011953 | 0 | 124 | 2.0 | 3.0 | 0.00 | 0.00 | 0.00 | 1053.9 | |
| 20260509011451 | 0 | 137 | 1.0 | 3.0 | 0.00 | 0.00 | 0.00 | 1053.8 | |
| 20260509010948 | 0 | 143 | 2.0 | 6.0 | 0.00 | 0.00 | 0.00 | 1054.0 | |
| 20260509010446 | 0 | 141 | 1.0 | 3.0 | 0.00 | 0.00 | 0.00 | 1054.2 | |
| 20260509005942 | 0 | 154 | 3.0 | 3.0 | 0.00 | 0.00 | 0.00 | 1054.0 | |
| 20260509005440 | 0 | 173 | 3.0 | 3.0 | 0.00 | 0.00 | 0.00 | 1053.8 | |
| 20260509004940 | 0 | 164 | 2.0 | 5.0 | 0.00 | 0.00 | 0.00 | 1053.8 | |
| 20260509004437 | 0 | 165 | 5.0 | 6.0 | 0.00 | 0.00 | 0.00 | 1053.9 | |
| 20260509003935 | 0 | 141 | 3.0 | 6.0 | 0.00 | 0.00 | 0.00 | 1053.9 | |
| 20260509003433 | 0 | 146 | 4.0 | 6.0 | 0.00 | 0.00 | 0.00 | 1054.0 | |
| 20260509002929 | 0 | 150 | 2.0 | 3.0 | 0.00 | 0.00 | 0.00 | 1054.2 | |
| 20260509002427 | 0 | 167 | 5.0 | 5.0 | 0.00 | 0.00 | 0.00 | 1054.1 | |
| 20260509001924 | 0 | 138 | 1.0 | 2.0 | 0.00 | 0.00 | 0.00 | 1054.4 | |
| 20260509001420 | 0 | 153 | 2.0 | 2.0 | 0.00 | 0.00 | 0.00 | 1054.4 | |
| 20260509000917 | 0 | 124 | 0.0 | 1.0 | 0.00 | 0.00 | 0.00 | 1054.5 | |
| 20260509000417 | 0 | 128 | 0.0 | 2.0 | 0.00 | 0.00 | 0.00 | 1054.4 | |
| 20260508235905 | 0 | 119 | 0.0 | 1.0 | 0.00 | 0.00 | 0.00 | 1054.1 | |
| 20260508235403 | 0 | 123 | 0.0 | 1.0 | 0.00 | 0.00 | 0.00 | 1054.2 | |
| 20260508234900 | 0 | 122 | 0.0 | 1.0 | 0.00 | 0.00 | 0.00 | 1054.3 | |
| 20260508234356 | 0 | 123 | 1.0 | 1.0 | 0.00 | 0.00 | 0.00 | 1054.4 | |
| 20260508233855 | 0 | 118 | 1.0 | 1.0 | 0.00 | 0.00 | 0.00 | 1054.4 | |
| 20260508233354 | 0 | 101 | 2.0 | 3.0 | 0.00 | 0.00 | 0.00 | 1054.4 | |
| 20260508232850 | 0 | 89 | 3.0 | 3.0 | 0.00 | 0.00 | 0.00 | 1054.6 | |
| 20260508232346 | 0 | 127 | 2.0 | 2.0 | 0.00 | 0.00 | 0.00 | 1054.5 | |
| 20260508231845 | 0 | 64 | 2.0 | 2.0 | 0.00 | 0.00 | 0.00 | 1054.7 | |
| 20260508231341 | 0 | 121 | 1.0 | 2.0 | 0.00 | 0.00 | 0.00 | 1055.2 | |
| 20260508230838 | 0 | 127 | 0.0 | 0.0 | 0.00 | 0.00 | 0.00 | 1055.5 | |
| 20260508230334 | 0 | 126 | 0.0 | 0.0 | 0.00 | 0.00 | 0.00 | 1055.6 | |
| 20260508225832 | 0 | 133 | 0.0 | 1.0 | 0.00 | 0.00 | 0.00 | 1055.6 | |
| 20260508225328 | 0 | 122 | 0.0 | 1.0 | 0.00 | 0.00 | 0.00 | 1055.9 | |
| 20260508224827 | 0 | 111 | 1.0 | 1.0 | 0.00 | 0.00 | 0.00 | 1055.7 | |
| 20260508224324 | 0 | 68 | 2.0 | 5.0 | 0.00 | 0.00 | 0.00 | 1055.9 | |
| 20260508223821 | 0 | 335 | 4.0 | 6.0 | 0.00 | 0.00 | 0.00 | 1056.2 | |
| 20260508223318 | 0 | 294 | 5.0 | 6.0 | 0.00 | 0.00 | 0.00 | 1055.9 | |
| 20260508222816 | 0 | 303 | 5.0 | 11.0 | 0.00 | 0.00 | 0.00 | 1056.3 | |
| 20260508222313 | 0 | 267 | 3.0 | 3.0 | 0.00 | 0.00 | 0.00 | 1055.8 | |
| 20260508221809 | 0 | 269 | 3.0 | 3.0 | 0.00 | 0.00 | 0.00 | 1055.7 | |
| 20260508221305 | 0 | 227 | 3.0 | 5.0 | 0.00 | 0.00 | 0.00 | 1055.6 | |
| 20260508220801 | 0 | 148 | 2.0 | 8.0 | 0.00 | 0.00 | 0.00 | 1055.6 | |
| 20260508220258 | 0 | 220 | 2.0 | 5.0 | 0.00 | 0.00 | 0.00 | 1055.5 | |
| 20260508215754 | 0 | 286 | 2.0 | 5.0 | 0.00 | 0.00 | 0.00 | 1055.4 | |
| 20260508215251 | 0 | 144 | 0.0 | 1.0 | 0.00 | 0.00 | 0.00 | 1054.9 | |
| 20260508214748 | 0 | 126 | 1.0 | 1.0 | 0.00 | 0.00 | 0.00 | 1055.0 | |
| 20260508214245 | 0 | 128 | 1.0 | 2.0 | 0.00 | 0.00 | 0.00 | 1055.2 | |
| 20260508213741 | 0 | 143 | 2.0 | 3.0 | 0.00 | 0.00 | 0.00 | 1054.9 | |
| 20260508213238 | 0 | 212 | 2.0 | 3.0 | 0.00 | 0.00 | 0.00 | 1054.8 | |
| 20260508212735 | 0 | 194 | 1.0 | 2.0 | 0.00 | 0.00 | 0.00 | 1055.2 | |
| 20260508212231 | 0 | 160 | 2.0 | 3.0 | 0.00 | 0.00 | 0.00 | 1055.3 | |
| 20260508211727 | 0 | 154 | 2.0 | 3.0 | 0.00 | 0.00 | 0.00 | 1055.3 | |
| 20260508211223 | 0 | 111 | 2.0 | 6.0 | 0.00 | 0.00 | 0.00 | 1055.3 | |
| 20260508210720 | 0 | 154 | 3.0 | 3.0 | 0.00 | 0.00 | 0.00 | 1055.5 | |
| 20260508210217 | 0 | 158 | 3.0 | 5.0 | 0.00 | 0.00 | 0.00 | 1055.5 | |
| 20260508205714 | 0 | 137 | 4.0 | 8.0 | 0.00 | 0.00 | 0.00 | 1055.6 | |
| 20260508205210 | 0 | 184 | 3.0 | 7.0 | 0.00 | 0.00 | 0.00 | 1055.4 | |
| 20260508204706 | 0 | 120 | 1.0 | 10.0 | 0.00 | 0.00 | 0.00 | 1055.6 | |
| 20260508204203 | 0 | 108 | 2.0 | 3.0 | 0.00 | 0.00 | 0.00 | 1055.6 | |
| 20260508203659 | 0 | 132 | 1.0 | 2.0 | 0.00 | 0.00 | 0.00 | 1055.8 | |
| 20260508203155 | 0 | 182 | 2.0 | 6.0 | 0.00 | 0.00 | 0.00 | 1056.0 | |
| 20260508202652 | 0 | 273 | 4.0 | 10.0 | 0.00 | 0.00 | 0.00 | 1055.8 | |
| 20260508202149 | 0 | 163 | 1.0 | 2.0 | 0.00 | 0.00 | 0.00 | 1055.8 | |
| 20260508201645 | 0 | 147 | 2.0 | 7.0 | 0.00 | 0.00 | 0.00 | 1056.2 | |
| 20260508201142 | 0 | 147 | 5.0 | 8.0 | 0.00 | 0.00 | 0.00 | 1056.2 | |
| 20260508200639 | 0 | 169 | 4.0 | 6.0 | 0.00 | 0.00 | 0.00 | 1056.2 | |
| 20260508200135 | 0 | 162 | 2.0 | 5.0 | 0.00 | 0.00 | 0.00 | 1056.5 | |
| 20260508195632 | 0 | 133 | 2.0 | 8.0 | 0.00 | 0.00 | 0.00 | 1056.5 | |
| 20260508195128 | 0 | 165 | 6.0 | 13.0 | 0.00 | 0.00 | 0.00 | 1056.6 | |
| 20260508194625 | 0 | 169 | 2.0 | 3.0 | 0.00 | 0.00 | 0.00 | 1056.6 | |
| 20260508194122 | 0 | 105 | 1.0 | 2.0 | 0.00 | 0.00 | 0.00 | 1056.6 | |
| 20260508193619 | 0 | 150 | 2.0 | 3.0 | 0.00 | 0.00 | 0.00 | 1056.7 | |
| 20260508193115 | 0 | 137 | 1.0 | 5.0 | 0.00 | 0.00 | 0.00 | 1056.9 | |
| 20260508192612 | 0 | 170 | 3.0 | 5.0 | 0.00 | 0.00 | 0.00 | 1057.1 | |
| 20260508192109 | 0 | 88 | 2.0 | 2.0 | 0.00 | 0.00 | 0.00 | 1057.1 | |
| 20260508191606 | 0 | 126 | 1.0 | 3.0 | 0.00 | 0.00 | 0.00 | 1056.9 | |
| 20260508191103 | 0 | 165 | 2.0 | 3.0 | 0.00 | 0.00 | 0.00 | 1057.2 | |
| 20260508190600 | 0 | 144 | 3.0 | 3.0 | 0.00 | 0.00 | 0.00 | 1057.3 | |
| 20260508190056 | 0 | 172 | 2.0 | 3.0 | 0.00 | 0.00 | 0.00 | 1057.4 | |
| 20260508185554 | 0 | 154 | 3.0 | 3.0 | 0.00 | 0.00 | 0.00 | 1057.5 | |
| 20260508185052 | 0 | 69 | 3.0 | 5.0 | 0.00 | 0.00 | 0.00 | 1057.6 | |
| 20260508184548 | 0 | 173 | 1.0 | 2.0 | 0.00 | 0.00 | 0.00 | 1057.7 | |
| 20260508184045 | 0 | 153 | 2.0 | 3.0 | 0.00 | 0.00 | 0.00 | 1057.6 | |
| 20260508183542 | 0 | 175 | 2.0 | 3.0 | 0.00 | 0.00 | 0.00 | 1057.6 | |
| 20260508183038 | 0 | 132 | 1.0 | 2.0 | 0.00 | 0.00 | 0.00 | 1057.9 | |
| 20260508182534 | 0 | 150 | 1.0 | 3.0 | 0.00 | 0.00 | 0.00 | 1057.9 | |
| 20260508182031 | 0 | 127 | 1.0 | 1.0 | 0.00 | 0.00 | 0.00 | 1058.0 | |
| 20260508181526 | 0 | 226 | 2.0 | 3.0 | 0.00 | 0.00 | 0.00 | 1057.7 | |
| 20260508181024 | 0 | 152 | 1.0 | 2.0 | 0.00 | 0.00 | 0.00 | 1057.9 | |
| 20260508180520 | 0 | 145 | 2.0 | 2.0 | 0.00 | 0.00 | 0.00 | 1058.2 | |
| 20260508180017 | 0 | 150 | 2.0 | 3.0 | 0.00 | 0.00 | 0.00 | 1058.3 | |
| 20260508175513 | 0 | 303 | 6.0 | 8.0 | 0.00 | 0.00 | 0.00 | 1058.5 | |
| 20260508175011 | 0 | 130 | 1.0 | 5.0 | 0.00 | 0.00 | 0.00 | 1058.3 | |
| 20260508174508 | 0 | 153 | 0.0 | 3.0 | 0.00 | 0.00 | 0.00 | 1058.5 | |
| 20260508174005 | 0 | 314 | 2.0 | 6.0 | 0.00 | 0.00 | 0.00 | 1058.5 | |
| 20260508173502 | 0 | 335 | 3.0 | 5.0 | 0.00 | 0.00 | 0.00 | 1058.7 | |
| 20260508172958 | 0 | 123 | 2.0 | 3.0 | 0.00 | 0.00 | 0.00 | 1058.7 | |
| 20260508172455 | 0 | 263 | 2.0 | 3.0 | 0.00 | 0.00 | 0.00 | 1058.6 | |
| 20260508171951 | 0 | 186 | 2.0 | 5.0 | 0.00 | 0.00 | 0.00 | 1058.5 | |
| 20260508171449 | 0 | 148 | 2.0 | 2.0 | 0.00 | 0.00 | 0.00 | 1058.9 | |
| 20260508170945 | 0 | 197 | 2.0 | 6.0 | 0.00 | 0.00 | 0.00 | 1058.8 | |
| 20260508170442 | 0 | 176 | 2.0 | 2.0 | 0.00 | 0.00 | 0.00 | 1058.8 | |
| 20260508165939 | 0 | 262 | 7.0 | 10.0 | 0.00 | 0.00 | 0.00 | 1059.0 | |
| 20260508165437 | 0 | 239 | 4.0 | 7.0 | 0.00 | 0.00 | 0.00 | 1059.2 | |
| 20260508164932 | 0 | 125 | 0.0 | 5.0 | 0.00 | 0.00 | 0.00 | 1059.3 | |
| 20260508164430 | 0 | 132 | 1.0 | 3.0 | 0.00 | 0.00 | 0.00 | 1059.0 | |
| 20260508163927 | 0 | 119 | 1.0 | 2.0 | 0.00 | 0.00 | 0.00 | 1059.0 | |
| 20260508163425 | 0 | 170 | 2.0 | 3.0 | 0.00 | 0.00 | 0.00 | 1059.2 | |
| 20260508162920 | 0 | 274 | 4.0 | 9.0 | 0.00 | 0.00 | 0.00 | 1059.5 | |
| 20260508162418 | 0 | 153 | 1.0 | 8.0 | 0.00 | 0.00 | 0.00 | 1059.4 | |
| 20260508161914 | 0 | 257 | 3.0 | 5.0 | 0.00 | 0.00 | 0.00 | 1059.5 | |
| 20260508161412 | 0 | 126 | 0.0 | 1.0 | 0.00 | 0.00 | 0.00 | 1059.4 | |
| 20260508160909 | 0 | 159 | 1.0 | 2.0 | 0.00 | 0.00 | 0.00 | 1059.8 | |
| 20260508160408 | 0 | 129 | 1.0 | 3.0 | 0.00 | 0.00 | 0.00 | 1059.6 | |
| 20260508155903 | 0 | 119 | 1.0 | 7.0 | 0.00 | 0.00 | 0.00 | 1059.7 | |
| 20260508155401 | 0 | 125 | 1.0 | 5.0 | 0.00 | 0.00 | 0.00 | 1059.7 | |
| 20260508154857 | 0 | 202 | 1.0 | 5.0 | 0.00 | 0.00 | 0.00 | 1059.8 | |
| 20260508154355 | 0 | 260 | 3.0 | 5.0 | 0.00 | 0.00 | 0.00 | 1059.9 | |
| 20260508153851 | 0 | 278 | 2.0 | 5.0 | 0.00 | 0.00 | 0.00 | 1060.0 | |
| 20260508153349 | 0 | 203 | 4.0 | 9.0 | 0.00 | 0.00 | 0.00 | 1060.0 | |
| 20260508152844 | 0 | 129 | 2.0 | 6.0 | 0.00 | 0.00 | 0.00 | 1060.0 | |
| 20260508152341 | 0 | 154 | 1.0 | 5.0 | 0.00 | 0.00 | 0.00 | 1060.1 | |
| 20260508151838 | 0 | 126 | 1.0 | 3.0 | 0.00 | 0.00 | 0.00 | 1060.1 | |
| 20260508151335 | 0 | 182 | 1.0 | 2.0 | 0.00 | 0.00 | 0.00 | 1060.1 | |
| 20260508150831 | 0 | 179 | 2.0 | 5.0 | 0.00 | 0.00 | 0.00 | 1059.9 | |
| 20260508150328 | 0 | 128 | 1.0 | 2.0 | 0.00 | 0.00 | 0.00 | 1059.9 | |
| 20260508145824 | 0 | 129 | 1.0 | 6.0 | 0.00 | 0.00 | 0.00 | 1060.2 | |
| 20260508145320 | 0 | 154 | 2.0 | 3.0 | 0.00 | 0.00 | 0.00 | 1060.2 | |
| 20260508144817 | 0 | 264 | 2.0 | 6.0 | 0.00 | 0.00 | 0.00 | 1060.2 | |
| 20260508144315 | 0 | 167 | 1.0 | 3.0 | 0.00 | 0.00 | 0.00 | 1060.2 | |
| 20260508143813 | 0 | 149 | 3.0 | 5.0 | 0.00 | 0.00 | 0.00 | 1060.3 | |
| 20260508143309 | 0 | 185 | 1.0 | 3.0 | 0.00 | 0.00 | 0.00 | 1060.4 | |
| 20260508142806 | 0 | 211 | 5.0 | 10.0 | 0.00 | 0.00 | 0.00 | 1060.6 | |
| 20260508142306 | 0 | 304 | 2.0 | 5.0 | 0.00 | 0.00 | 0.00 | 1060.2 | |
| 20260508141759 | 0 | 144 | 2.0 | 5.0 | 0.00 | 0.00 | 0.00 | 1060.3 | |
| 20260508141256 | 0 | 144 | 1.0 | 2.0 | 0.00 | 0.00 | 0.00 | 1060.3 | |
| 20260508140754 | 0 | 284 | 4.0 | 7.0 | 0.00 | 0.00 | 0.00 | 1060.4 | |
| 20260508140251 | 0 | 195 | 1.0 | 2.0 | 0.00 | 0.00 | 0.00 | 1060.1 | |
| 20260508135746 | 0 | 133 | 1.0 | 1.0 | 0.00 | 0.00 | 0.00 | 1059.9 | |
| 20260508135243 | 0 | 142 | 1.0 | 2.0 | 0.00 | 0.00 | 0.00 | 1060.2 | |
| 20260508134738 | 0 | 170 | 1.0 | 5.0 | 0.00 | 0.00 | 0.00 | 1060.1 | |
| 20260508134236 | 0 | 154 | 1.0 | 2.0 | 0.00 | 0.00 | 0.00 | 1060.2 | |
| 20260508133732 | 0 | 165 | 2.0 | 2.0 | 0.00 | 0.00 | 0.00 | 1060.4 | |
| 20260508133230 | 0 | 162 | 2.0 | 5.0 | 0.00 | 0.00 | 0.00 | 1060.0 | |
| 20260508132728 | 0 | 140 | 1.0 | 3.0 | 0.00 | 0.00 | 0.00 | 1060.3 | |
| 20260508132225 | 0 | 145 | 1.0 | 2.0 | 0.00 | 0.00 | 0.00 | 1060.0 | |
| 20260508131720 | 0 | 170 | 4.0 | 10.0 | 0.00 | 0.00 | 0.00 | 1060.0 | |
| 20260508131217 | 0 | 176 | 3.0 | 3.0 | 0.00 | 0.00 | 0.00 | 1060.0 | |
| 20260508130714 | 0 | 150 | 2.0 | 2.0 | 0.00 | 0.00 | 0.00 | 1060.1 | |
| 20260508130211 | 0 | 134 | 1.0 | 7.0 | 0.00 | 0.00 | 0.00 | 1060.2 | |
| 20260508125706 | 0 | 138 | 2.0 | 3.0 | 0.00 | 0.00 | 0.00 | 1060.0 | |
| 20260508125203 | 0 | 119 | 2.0 | 3.0 | 0.00 | 0.00 | 0.00 | 1060.2 | |
| 20260508124701 | 0 | 132 | 1.0 | 2.0 | 0.00 | 0.00 | 0.00 | 1060.2 | |
| 20260508124158 | 0 | 172 | 1.0 | 2.0 | 0.00 | 0.00 | 0.00 | 1059.9 | |
| 20260508123657 | 0 | 133 | 0.0 | 2.0 | 0.00 | 0.00 | 0.00 | 1059.8 | |
| 20260508123154 | 0 | 146 | 1.0 | 2.0 | 0.00 | 0.00 | 0.00 | 1059.8 | |
| 20260508122650 | 0 | 144 | 1.0 | 1.0 | 0.00 | 0.00 | 0.00 | 1059.9 | |
| 20260508122147 | 0 | 151 | 1.0 | 2.0 | 0.00 | 0.00 | 0.00 | 1059.6 | |
| 20260508121645 | 0 | 163 | 1.0 | 2.0 | 0.00 | 0.00 | 0.00 | 1059.7 | |
| 20260508121143 | 0 | 193 | 1.0 | 7.0 | 0.00 | 0.00 | 0.00 | 1059.7 | |
| 20260508120640 | 0 | 196 | 4.0 | 6.0 | 0.00 | 0.00 | 0.00 | 1059.9 | |
| 20260508120138 | 0 | 160 | 2.0 | 3.0 | 0.00 | 0.00 | 0.00 | 1059.9 | |
| 20260508115636 | 0 | 131 | 3.0 | 3.0 | 0.00 | 0.00 | 0.00 | 1059.8 | |
| 20260508115132 | 0 | 145 | 2.0 | 3.0 | 0.00 | 0.00 | 0.00 | 1059.7 | |
| 20260508114629 | 0 | 146 | 3.0 | 5.0 | 0.00 | 0.00 | 0.00 | 1059.7 | |
| 20260508114125 | 0 | 128 | 4.0 | 6.0 | 0.00 | 0.00 | 0.00 | 1059.8 | |
| 20260508113623 | 0 | 164 | 2.0 | 3.0 | 0.00 | 0.00 | 0.00 | 1060.0 | |
| 20260508113121 | 0 | 148 | 2.0 | 3.0 | 0.00 | 0.00 | 0.00 | 1059.8 | |
| 20260508112617 | 0 | 147 | 2.0 | 2.0 | 0.00 | 0.00 | 0.00 | 1059.6 | |
| 20260508112114 | 0 | 164 | 1.0 | 3.0 | 0.00 | 0.00 | 0.00 | 1059.7 | |
| 20260508111610 | 0 | 165 | 1.0 | 2.0 | 0.00 | 0.00 | 0.00 | 1059.6 | |
| 20260508111108 | 0 | 159 | 1.0 | 3.0 | 0.00 | 0.00 | 0.00 | 1059.7 | |
| 20260508110606 | 0 | 146 | 1.0 | 2.0 | 0.00 | 0.00 | 0.00 | 1059.6 | |
| 20260508110101 | 0 | 157 | 2.0 | 2.0 | 0.00 | 0.00 | 0.00 | 1059.6 | |
| 20260508105556 | 0 | 144 | 1.0 | 2.0 | 0.00 | 0.00 | 0.00 | 1059.7 | |
| 20260508105054 | 0 | 185 | 3.0 | 3.0 | 0.00 | 0.00 | 0.00 | 1059.5 | |
| 20260508104552 | 0 | 146 | 2.0 | 2.0 | 0.00 | 0.00 | 0.00 | 1059.6 | |
| 20260508104048 | 0 | 173 | 2.0 | 2.0 | 0.00 | 0.00 | 0.00 | 1059.6 | |
| 20260508103545 | 0 | 151 | 1.0 | 2.0 | 0.00 | 0.00 | 0.00 | 1059.5 | |
| 20260508103042 | 0 | 134 | 1.0 | 2.0 | 0.00 | 0.00 | 0.00 | 1059.5 | |
| 20260508102540 | 0 | 162 | 1.0 | 7.0 | 0.00 | 0.00 | 0.00 | 1059.6 | |
| 20260508102038 | 0 | 139 | 2.0 | 2.0 | 0.00 | 0.00 | 0.00 | 1059.6 | |
| 20260508101535 | 0 | 173 | 1.0 | 2.0 | 0.00 | 0.00 | 0.00 | 1059.5 | |
| 20260508101032 | 0 | 167 | 1.0 | 3.0 | 0.00 | 0.00 | 0.00 | 1059.7 | |
| 20260508100530 | 0 | 178 | 3.0 | 6.0 | 0.00 | 0.00 | 0.00 | 1059.7 | |
| 20260508100026 | 0 | 181 | 3.0 | 3.0 | 0.00 | 0.00 | 0.00 | 1059.6 | |
| 20260508095524 | 0 | 146 | 1.0 | 5.0 | 0.00 | 0.00 | 0.00 | 1059.5 | |
| 20260508095020 | 0 | 154 | 1.0 | 5.0 | 0.00 | 0.00 | 0.00 | 1059.7 | |
| 20260508094518 | 0 | 148 | 1.0 | 2.0 | 0.00 | 0.00 | 0.00 | 1059.9 | |
| 20260508094014 | 0 | 137 | 1.0 | 2.0 | 0.00 | 0.00 | 0.00 | 1059.8 |